Date,TemperatureHighF,TemperatureAvgF,TemperatureLowF,DewpointHighF,DewpointAvgF,DewpointLowF,HumidityHigh,HumidityAvg,HumidityLow,PressureMaxIn,PressureMinIn,WindSpeedMaxMPH,WindSpeedAvgMPH,GustSpeedMaxMPH,PrecipitationSumIn
2013-3-2,19.8,19.3,18.9,7.0,6.5,6.1,58,57,56,29.18,29.16,4,3,4,0.14
2013-3-3,39.0,21.6,1.8,13.3,3.4,-3.5,86,49,16,29.12,29.01,7,2,7,0.00
2013-3-4,34.0,22.0,7.2,19.3,10.5,1.8,83,61,46,29.04,28.31,18,6,18,0.02
2013-3-5,29.5,25.9,21.9,25.0,22.0,18.1,92,85,80,29.18,28.99,14,6,14,0.00
2013-3-6,37.4,22.4,0.5,19.9,13.5,-3.3,87,70,40,29.32,29.17,14,6,14,0.05
2013-3-7,42.3,16.3,-6.0,16.4,6.2,-10.2,86,67,30,29.36,29.28,8,2,8,0.00
2013-3-8,43.5,33.9,10.8,27.7,23.7,8.4,91,67,52,29.32,29.12,16,8,16,0.00
2013-3-9,35.6,33.2,24.3,35.2,30.2,4.4,99,89,42,29.17,28.70,20,7,20,0.21
2013-3-10,37.4,33.9,29.1,33.2,28.5,-17.9,99,81,60,29.15,28.72,21,6,21,0.34
2013-3-11,34.5,28.5,24.6,29.2,24.8,19.9,99,86,71,28.78,28.64,20,6,20,0.06
2013-3-12,37.8,25.3,11.7,21.7,15.8,8.9,92,70,35,29.07,28.74,20,7,20,0.00
2013-3-13,40.5,23.0,12.9,13.9,6.2,1.3,77,52,21,29.27,29.07,16,6,16,0.00
2013-3-14,41.2,22.8,6.8,28.2,17.1,-22.2,92,79,23,29.24,28.98,13,3,97,0.01
2013-3-15,45.3,29.3,17.6,30.5,24.5,15.4,97,84,50,28.98,28.81,14,3,14,0.09
2013-3-16,35.4,22.9,9.9,23.5,12.6,0.2,96,67,38,29.15,28.83,13,5,13,0.04
2013-3-17,34.2,14.6,-4.5,12.2,3.2,-9.6,84,62,33,29.21,28.92,16,5,16,0.00
2013-3-18,31.8,21.5,14.5,29.4,17.5,9.9,95,85,72,28.93,28.52,20,11,20,0.00
2013-3-19,32.4,17.3,7.5,10.5,5.0,-2.3,83,60,33,29.03,28.64,23,8,23,0.06
2013-3-20,24.4,10.0,-6.2,4.9,-2.8,-11.0,80,57,37,29.06,29.02,17,6,17,0.00
2013-3-21,34.2,10.1,-11.4,14.3,-0.9,-16.1,84,64,33,29.06,28.98,10,3,10,0.00
2013-3-22,45.1,18.4,-3.8,19.0,6.4,-7.9,87,64,29,29.04,28.97,6,2,6,0.00
2013-3-23,47.7,27.3,7.2,23.9,16.2,3.7,91,66,35,29.11,29.01,12,3,12,0.00
2013-3-24,37.8,29.4,23.2,24.5,21.4,16.8,84,72,51,29.06,28.89,16,6,16,0.00
2013-3-25,44.1,26.5,7.7,24.1,17.4,5.4,92,70,43,29.14,28.94,15,5,15,0.00
2013-3-26,45.9,31.5,18.5,25.9,20.7,14.9,90,66,38,29.23,29.14,8,2,8,0.00
2013-3-27,50.4,35.4,19.8,25.3,19.8,13.8,84,57,25,29.28,29.23,9,2,9,0.00
2013-3-28,52.3,30.4,9.1,22.9,16.3,6.6,91,62,21,29.31,29.24,6,2,6,0.00
2013-3-29,53.8,32.8,13.1,28.0,19.9,11.0,92,65,26,29.28,29.09,11,3,11,0.00
2013-3-30,43.3,37.2,26.8,40.1,33.1,25.9,99,86,64,29.09,28.78,12,2,12,0.63
2013-3-31,44.2,33.0,25.3,33.7,22.7,12.2,99,70,31,28.96,28.70,24,6,24,0.01